This is the latest recevied weather packets stored in our database for station/object KF6ILA. If no packets are shown the sender has not sent any weather packets the latest 10 day(s).
| Time | Temp. | Humidity | Pressure | Rain* | Wind** | Luminosity | Snow |
|---|---|---|---|---|---|---|---|
| 1787788324 | 33.33° C | 30% | 1017 hPa | 0 mm | - | 540 W/m² | - |
| 1787788027 | 33.89° C | 29% | 1016.9 hPa | 0 mm | - | 422 W/m² | - |
| 1787787730 | 33.89° C | 31% | 1016.9 hPa | 0 mm | - | 330 W/m² | - |
| 1787787136 | 33.89° C | 32% | 1017 hPa | 0 mm | - | 582 W/m² | - |
| 1787786838 | 33.89° C | 31% | 1017 hPa | 0 mm | - | 668 W/m² | - |
| 1787786541 | 33.89° C | 31% | 1017 hPa | 0 mm | - | 645 W/m² | - |
| 1787785947 | 34.44° C | 31% | 1017 hPa | 0 mm | - | 657 W/m² | - |
| 1787785651 | 33.89° C | 30% | 1017 hPa | 0 mm | - | 668 W/m² | - |
| 1787785057 | 33.89° C | 31% | 1017 hPa | 0 mm | - | 691 W/m² | - |
| 1787784759 | 33.89° C | 30% | 1017.1 hPa | 0 mm | - | 700 W/m² | - |
| 1787784166 | 33.89° C | 32% | 1017.2 hPa | 0 mm | - | 708 W/m² | - |
| 1787783869 | 33.89° C | 31% | 1017.3 hPa | 0 mm | - | 624 W/m² | - |
| 1787783275 | 33.33° C | 35% | 1017.6 hPa | 0 mm | - | 814 W/m² | - |
| 1787782978 | 33.89° C | 34% | 1017.6 hPa | 0 mm | - | 504 W/m² | - |
| 1787782681 | 33.89° C | 33% | 1017.8 hPa | 0 mm | - | 418 W/m² | - |
| 1787782087 | 34.44° C | 34% | 1018 hPa | 0 mm | - | 842 W/m² | - |
| 1787781790 | 33.89° C | 34% | 1018 hPa | 0 mm | - | 837 W/m² | - |
| 1787781493 | 33.89° C | 32% | 1018.1 hPa | 0 mm | - | 844 W/m² | - |
| 1787781196 | 34.44° C | 33% | 1018.1 hPa | 0 mm | - | 798 W/m² | - |
| 1787780899 | 34.44° C | 33% | 1018.2 hPa | 0 mm | - | 882 W/m² | - |
| 1787780602 | 34.44° C | 34% | 1018.3 hPa | 0 mm | - | 891 W/m² | - |
| 1787780305 | 34.44° C | 33% | 1018.4 hPa | 0 mm | - | 872 W/m² | - |
| 1787779414 | 35° C | 30% | 1018.5 hPa | 0 mm | - | 937 W/m² | - |
| 1787779117 | 35.56° C | 29% | 1018.4 hPa | 0 mm | - | 951 W/m² | - |
| 1787778820 | 35.56° C | 28% | 1018.6 hPa | 0 mm | - | 979 W/m² | - |
* Rain latest hour (hover to see other rain measurements)
** Current wind speed in m/s (hover to see current wind gust speed)